Starlink 31881

operational
NORAD ID: 59659 Int'l Des: 2024-084 Owner: SPXS Country: US Constellation: starlink
LEOCIRCULAR

About Starlink 31881

Description loading...

Live Position

Loading 3D Globe...

Upcoming Passes

Altitude History

Altitude vs Time

uPlot chart will show altitude changes over time

Two-Line Element Set

1 59659U 24084F 25310.54243191 .00019430 00000-0 71304-3 0 9997
2 59659 43.0004 13.4425 0001039 287.4962 72.5776 15.27611887 85583
Epoch: Nov 6, 2025 • Age: 27 hours

Current Status

Altitude 482.3 km
Velocity 7.63 km/s
Sub-Earth Point 21.09°N, 106.82°E
Launch Date May 6, 2024
Age 1.5 years
Type internet

Technical Details

Classification Payload
Mass 730.00 kg
Dry Mass 700.00 kg
Total Mass 730.00 kg
Length 0.30 m
Diameter 4.10 m
Span 29.00 m
Shape Box + pan
Manufacturer SPXS
Bus Type Starlink V2M
Phase Status In Orbit
Owner/State SPXS/US

Large Constellations

Loading constellations...